Location: Taupo
(38.6830°S, 176.0830°E)
Time: 23:31:15
(UTC+13:00)

Meteor 2-21 - Pass Details

Date: 24 January 2019
Orbit: 933 x 967 km, 82.5° (Epoch: 21 February)

Event Time Altitude Azimuth Distance (km) Brightness Sun altitude
Exits shadow 23:43:31 68° 75° (ENE) 1,014 4.3 -27.2°
Maximum altitude 23:43:41 68° 86° (E) 1,012 4.4 -27.2°
Drops below altitude 10° 23:49:44 10° 167° (SSE) 2,675 7.4 -27.7°
Sets 23:52:15 0° 169° (S) 3,628 8.3 -27.9°
